Hourly Data Report for September 30, 2020

MUSKOKA
ONTARIO
Current Station Operator: NAVCAN

44°58'29.000" N
79°18'12.000" W
281.90 m
6115529
71532
YQA

Download Data

Hourly Data (September 2020)
Hourly Data Report for September 30, 2020
TIME
LST
Temp Definition
°C
Dew Point Definition
°C
Rel Hum Definition
%
Precip. Amount Definition
mm

Wind Dir Definition
10's deg

Wind Spd Definition
km/h
Visibility Definition
km
Stn Press Definition
kPa
Hmdx Definition


Wind Chill Definition


Weather Definition


00:00 10.8 9.7 93 0.0 12 8 16.1 97.04     Rain
01:00 10.4 9.8 96 0.0 10 8 16.1 96.92     Rain
02:00 10.4 10.0 97 0.0 12 8 16.1 96.81     LegendNANA
03:00 10.4 10.1 98 0.0 14 8 16.1 96.72     LegendNANA
04:00 10.8 10.5 98 0.0 16 11 16.1 96.66     LegendNANA
05:00 10.6 10.2 97 0.0 16 8 16.1 96.62     LegendNANA
06:00 10.4 9.6 95 0.0 17 8 16.1 96.54     LegendNANA
07:00 10.2 9.4 95 0.0 18 9 16.1 96.53     LegendNANA
08:00 11.7 9.9 89 0.0 18 9 16.1 96.53     LegendNANA
09:00 12.6 8.9 78 0.0 19 21 16.1 96.50     LegendNANA
10:00 11.9 8.0 77 0.0 19 24 16.1 96.49     LegendNANA
11:00 11.8 8.6 81 0.0 20 18 16.1 96.48     Rain
12:00 11.7 8.6 81 0.0 20 18 16.1 96.44     Rain
13:00 11.5 10.0 91 1.8 20 17 16.1 96.45     Rain
14:00 13.3 10.2 82 0.0 19 17 16.1 96.46     LegendNANA
15:00 12.6 10.3 86 0.0 18 15 16.1 96.47     Rain
16:00 11.6 9.6 88 0.2 19 13 16.1 96.54     LegendNANA
17:00 10.1 9.0 93 3.3 20 21 16.1 96.61     Rain
18:00 9.7 9.1 96 2.5 18 8 16.1 96.61     Rain
19:00 9.7 9.3 97 0.0 18 9 16.1 96.72     LegendNANA
20:00 9.6 9.3 98 0.0 18 9 16.1 96.77     LegendNANA
21:00 9.9 9.3 96 0.0 20 9 16.1 96.81     LegendNANA
22:00 9.5 8.8 95 0.0 19 9 16.1 96.85     LegendNANA
23:00 7.6 7.3 98 0.0 17 8 16.1 96.90     LegendNANA

Notes on Data Quality.

Legend

  • E = Estimated
  • M = Missing
  • NA = Not Available*
  • [empty] = Indicates an unobserved value
Date modified: